Zurück zum Katalog

COSMOS 1759

AktivNavigationPO
NORAD 16798·PAYLOAD·🇷🇺 Russia

Gestartet Jun 18, 1986 von Plesetsk Cosmodrome

Loading…

Nächste Überflüge (nächste 24 Stunden)

TLE

AktuellSource: Space-Track

Epoche: Sep 14, 2026, 22:14 UTC

1 16798U 86047A   26257.92677840  .00000046  00000-0  32156-4 0  9992
2 16798  82.9190 121.7538 0024787   6.8425   9.4213 13.75207463 19032

Verfolge COSMOS 1759 in Echtzeit mit AllMySat

Download on the App Store